Regional Weather Roundup
Issued by NWS

Home | Current Version | Previous Version | Text Only | Print | Product List | Glossary Off
Versions: 1 2 3 4 5 6 7 8 9 10 11 12 13 14 15 16 17 18 19 20 21 22 23 24 25 26 27 28 29 30 31 32 33 34 35 36 37 38 39 40 41 42 43 44 45 46 47 48 49 50

000
ASUS43 KBIS 241420
RWRND

NORTH DAKOTA REGIONAL WEATHER ROUNDUP
NATIONAL WEATHER SERVICE BISMARCK ND
900 AM CDT THU JUL 24 2014

NOTE: "FAIR" INDICATES FEW OR NO CLOUDS BELOW 12,000 FEET WITH NO
SIGNIFICANT WEATHER AND/OR OBSTRUCTIONS TO VISIBILITY.


NDZ001>003-009>011-017-241500-
NORTHWEST NORTH DAKOTA

CITY           SKY/WX    TMP DP  RH WIND       PRES   REMARKS
WILLISTON      CLOUDY    68  60  75 E5        29.85F
MINOT          LGT RAIN  63  61  93 E21G28    29.86F
MINOT AFB      DRIZZLE   63  63 100 SE23      29.84F
$$

NDZ018>021-031>035-040>046-241500-
SOUTHWEST NORTH DAKOTA

CITY           SKY/WX    TMP DP  RH WIND       PRES   REMARKS
BISMARCK       CLOUDY    68  59  73 CALM      30.00R
DICKINSON      CLOUDY    64  60  87 E16       29.92R
GARRISON         N/A     62  61  96 E14G22    29.93F
HETTINGER ARPT PTSUNNY   68  61  78 NE10      29.91R
$$

NDZ004>008-012>016-024-026-027-054-241500-
NORTHEAST NORTH DAKOTA

CITY           SKY/WX    TMP DP  RH WIND       PRES   REMARKS
GRAND FORKS    CLOUDY    65  59  81 S7        30.06R
GRND FRKS AFB  PTSUNNY   65  63  94 S7        30.06S
DEVILS LAKE    CLOUDY    66  57  72 SE12      30.03S
$$

NDZ022-023-025-028>030-036>039-047>053-241500-
SOUTHEAST NORTH DAKOTA

CITY           SKY/WX    TMP DP  RH WIND       PRES   REMARKS
FARGO          MOSUNNY   70  58  65 S10       30.06F
JAMESTOWN      PTSUNNY   67  58  72 SE14      29.99F
$$



USA.gov is the U.S. government's official web portal to all federal, state and local government web resources and services.